| time (UTC) | temp F | wind direction | speed knots | gust knots | rain 1hr in | rain 24hr in | rain mn in | humidity % | barometer mb |
| 20260508054504 | 57 | 137 | 5.2 | 10.4 | 0.00 | 0.00 | 0.00 | 76 | 1010.3 |
| 20260508053603 | 58 | 128 | 5.2 | 9.6 | 0.00 | 0.00 | 0.00 | 76 | 1010.2 |
| 20260508052703 | 56 | 152 | 4.3 | 9.6 | 0.00 | 0.00 | 0.00 | 80 | 1010.3 |
| 20260508051803 | 54 | 170 | 4.3 | 8.7 | 0.00 | 0.00 | 0.00 | 83 | 1010.2 |
| 20260508050904 | 53 | 216 | 3.5 | 6.1 | 0.00 | 0.00 | 0.00 | 86 | 1009.9 |
| 20260508050014 | 53 | 205 | 3.5 | 5.2 | 0.00 | 0.00 | 0.00 | 86 | 1009.8 |
| 20260508045403 | 53 | 201 | 3.5 | 6.1 | 0.00 | 0.00 | 0.00 | 85 | 1009.8 |
| 20260508044503 | 54 | 149 | 3.5 | 7.0 | 0.00 | 0.00 | 0.00 | 81 | 1009.8 |
| 20260508043603 | 54 | 153 | 4.3 | 8.7 | 0.00 | 0.00 | 0.00 | 82 | 1009.8 |
| 20260508042705 | 53 | 139 | 6.1 | 10.4 | 0.00 | 0.00 | 0.00 | 83 | 1009.9 |
| 20260508041825 | 53 | 156 | 6.1 | 9.6 | 0.00 | 0.00 | 0.00 | 83 | 1010.2 |
| 20260508040903 | 53 | 138 | 5.2 | 9.6 | 0.00 | 0.00 | 0.00 | 84 | 1009.8 |
| 20260508040004 | 52 | 153 | 3.5 | 7.0 | 0.00 | 0.00 | 0.00 | 85 | 1009.9 |
| 20260508035403 | 52 | 168 | 2.6 | 6.1 | 0.00 | 0.00 | 0.00 | 84 | 1010.1 |
| 20260508034503 | 54 | 144 | 2.6 | 7.8 | 0.00 | 0.00 | 0.00 | 81 | 1009.9 |
| 20260508033603 | 54 | 135 | 5.2 | 10.4 | 0.00 | 0.00 | 0.00 | 81 | 1009.6 |
| 20260508032726 | 53 | 155 | 4.3 | 10.4 | 0.00 | 0.00 | 0.00 | 82 | 1009.7 |
| 20260508031825 | 53 | 159 | 3.5 | 6.1 | 0.00 | 0.00 | 0.00 | 83 | 1009.7 |
| 20260508030903 | 53 | 157 | 3.5 | 7.0 | 0.00 | 0.00 | 0.00 | 82 | 1009.8 |
| 20260508030003 | 53 | 164 | 5.2 | 9.6 | 0.00 | 0.00 | 0.00 | 82 | 1009.8 |
| 20260508025424 | 53 | 165 | 4.3 | 7.8 | 0.00 | 0.00 | 0.00 | 82 | 1009.8 |
| 20260508024503 | 53 | 138 | 2.6 | 6.1 | 0.00 | 0.01 | 0.00 | 83 | 1009.9 |
| 20260508023604 | 52 | 147 | 1.7 | 5.2 | 0.00 | 0.01 | 0.00 | 84 | 1009.9 |
| 20260508022703 | 53 | 151 | 3.5 | 7.0 | 0.00 | 0.01 | 0.00 | 82 | 1010.3 |
| 20260508021824 | 53 | 154 | 4.3 | 6.1 | 0.00 | 0.01 | 0.00 | 83 | 1010.2 |
| 20260508020903 | 53 | 155 | 4.3 | 7.8 | 0.00 | 0.01 | 0.00 | 83 | 1010.4 |
| 20260508020003 | 53 | 153 | 4.3 | 7.8 | 0.00 | 0.01 | 0.00 | 83 | 1010.3 |
| 20260508015403 | 53 | 147 | 4.3 | 7.8 | 0.00 | 0.01 | 0.00 | 83 | 1010.5 |
| 20260508014504 | 53 | 140 | 4.3 | 9.6 | 0.00 | 0.01 | 0.00 | 83 | 1010.4 |
| 20260508013603 | 53 | 172 | 2.6 | 5.2 | 0.00 | 0.02 | 0.00 | 83 | 1010.6 |
| 20260508012724 | 53 | 152 | 3.5 | 6.1 | 0.00 | 0.02 | 0.00 | 83 | 1010.5 |
| 20260508011803 | 54 | 170 | 1.7 | 3.5 | 0.00 | 0.02 | 0.00 | 82 | 1010.3 |
| 20260508010903 | 54 | 162 | 3.5 | 5.2 | 0.00 | 0.02 | 0.00 | 81 | 1010.8 |
| 20260508010024 | 54 | 145 | 3.5 | 4.3 | 0.00 | 0.02 | 0.00 | 81 | 1010.6 |
| 20260508005403 | 54 | 129 | 2.6 | 4.3 | 0.00 | 0.02 | 0.00 | 81 | 1010.7 |
| 20260508004503 | 54 | 157 | 2.6 | 5.2 | 0.00 | 0.03 | 0.00 | 81 | 1010.6 |
| 20260508003603 | 54 | 162 | 2.6 | 5.2 | 0.00 | 0.03 | 0.00 | 80 | 1010.9 |
| 20260508002703 | 55 | 144 | 2.6 | 5.2 | 0.00 | 0.03 | 0.00 | 80 | 1010.9 |
| 20260508001803 | 55 | 133 | 4.3 | 6.1 | 0.00 | 0.03 | 0.00 | 79 | 1011.0 |
| 20260508000903 | 56 | 120 | 5.2 | 7.8 | 0.00 | 0.03 | 0.00 | 77 | 1011.3 |
| 20260508000003 | 57 | 9 | 2.6 | 7.8 | 0.00 | 0.03 | 0.00 | 77 | 1011.2 |
| 20260507235403 | 58 | 354 | 1.7 | 6.1 | 0.00 | 0.03 | 0.00 | 77 | 1011.3 |
| 20260507234503 | 58 | 19 | 1.7 | 6.1 | 0.00 | 0.03 | 0.00 | 76 | 1011.2 |
| 20260507233603 | 58 | 15 | 2.6 | 6.1 | 0.00 | 0.03 | 0.00 | 74 | 1011.2 |
| 20260507232703 | 59 | 341 | 1.7 | 4.3 | 0.00 | 0.03 | 0.00 | 74 | 1011.4 |
| 20260507231824 | 60 | 31 | 3.5 | 9.6 | 0.00 | 0.04 | 0.00 | 71 | 1011.3 |
| 20260507230924 | 60 | 34 | 4.3 | 9.6 | 0.00 | 0.04 | 0.00 | 70 | 1011.4 |
| 20260507230008 | 60 | 43 | 5.2 | 7.8 | 0.00 | 0.04 | 0.00 | 70 | 1011.8 |
| 20260507225403 | 60 | 43 | 4.3 | 7.8 | 0.00 | 0.04 | 0.00 | 69 | 1011.9 |
| 20260507224504 | 61 | 74 | 2.6 | 7.0 | 0.00 | 0.04 | 0.00 | 68 | 1012.0 |
| 20260507223603 | 61 | 99 | 2.6 | 5.2 | 0.00 | 0.04 | 0.00 | 67 | 1011.9 |
| 20260507222704 | 62 | 108 | 2.6 | 4.3 | 0.00 | 0.05 | 0.00 | 66 | 1012.0 |
| 20260507221803 | 62 | 86 | 4.3 | 9.6 | 0.00 | 0.05 | 0.00 | 66 | 1012.0 |
| 20260507220905 | 62 | 96 | 3.5 | 9.6 | 0.00 | 0.06 | 0.00 | 65 | 1011.9 |
| 20260507220005 | 63 | 71 | 6.1 | 12.2 | 0.00 | 0.06 | 0.00 | 65 | 1011.9 |
| 20260507215404 | 63 | 64 | 7.0 | 14.8 | 0.00 | 0.07 | 0.06 | 65 | 1011.5 |
| 20260507214503 | 63 | 63 | 9.6 | 16.5 | 0.00 | 0.07 | 0.06 | 65 | 1011.6 |
| 20260507213603 | 63 | 64 | 9.6 | 13.9 | 0.00 | 0.08 | 0.06 | 64 | 1011.7 |
| 20260507212703 | 63 | 62 | 9.6 | 16.5 | 0.00 | 0.09 | 0.06 | 65 | 1011.7 |
| 20260507211824 | 63 | 69 | 8.7 | 14.8 | 0.00 | 0.09 | 0.06 | 65 | 1012.0 |
| 20260507210903 | 63 | 65 | 9.6 | 14.8 | 0.00 | 0.09 | 0.06 | 66 | 1011.8 |
| 20260507210003 | 63 | 64 | 9.6 | 14.8 | 0.00 | 0.09 | 0.06 | 66 | 1011.6 |
| 20260507205405 | 63 | 68 | 9.6 | 13.9 | 0.00 | 0.09 | 0.06 | 66 | 1011.9 |
| 20260507204503 | 62 | 59 | 8.7 | 12.2 | 0.00 | 0.09 | 0.06 | 67 | 1011.7 |
| 20260507203603 | 62 | 62 | 8.7 | 13.9 | 0.00 | 0.09 | 0.06 | 66 | 1012.0 |
| 20260507202703 | 63 | 62 | 7.8 | 13.0 | 0.00 | 0.09 | 0.06 | 65 | 1012.0 |
| 20260507201803 | 63 | 54 | 9.6 | 13.0 | 0.00 | 0.09 | 0.06 | 64 | 1012.1 |
| 20260507200903 | 64 | 62 | 8.7 | 13.0 | 0.00 | 0.09 | 0.06 | 62 | 1011.8 |
| 20260507200005 | 64 | 62 | 8.7 | 13.9 | 0.00 | 0.09 | 0.06 | 61 | 1011.9 |
| 20260507195403 | 64 | 65 | 8.7 | 11.3 | 0.00 | 0.09 | 0.06 | 61 | 1012.0 |
| 20260507194505 | 63 | 70 | 7.8 | 12.2 | 0.00 | 0.09 | 0.06 | 62 | 1011.8 |
| 20260507193624 | 63 | 73 | 7.0 | 10.4 | 0.00 | 0.09 | 0.06 | 62 | 1011.9 |
| 20260507192705 | 63 | 71 | 7.0 | 9.6 | 0.00 | 0.09 | 0.06 | 62 | 1011.8 |
| 20260507191824 | 63 | 71 | 7.0 | 12.2 | 0.00 | 0.09 | 0.06 | 62 | 1011.6 |
| 20260507190924 | 63 | 70 | 7.8 | 11.3 | 0.00 | 0.09 | 0.06 | 62 | 1011.7 |
| 20260507190004 | 64 | 70 | 7.8 | 12.2 | 0.00 | 0.09 | 0.06 | 60 | 1011.5 |
| 20260507185403 | 64 | 65 | 6.1 | 9.6 | 0.00 | 0.09 | 0.06 | 60 | 1011.5 |
| 20260507184503 | 64 | 67 | 5.2 | 9.6 | 0.00 | 0.09 | 0.06 | 61 | 1011.6 |
| 20260507183603 | 64 | 74 | 3.5 | 7.0 | 0.00 | 0.09 | 0.06 | 60 | 1011.4 |
| 20260507182724 | 65 | 75 | 3.5 | 5.2 | 0.00 | 0.09 | 0.06 | 58 | 1011.5 |
| 20260507181803 | 66 | 74 | 3.5 | 5.2 | 0.00 | 0.09 | 0.06 | 56 | 1011.7 |
| 20260507180904 | 68 | 68 | 2.6 | 5.2 | 0.00 | 0.09 | 0.06 | 53 | 1011.3 |
| 20260507180003 | 70 | 55 | 0.9 | 2.6 | 0.00 | 0.09 | 0.06 | 49 | 1011.4 |
| 20260507175403 | 71 | 5 | 0.9 | 2.6 | 0.00 | 0.09 | 0.06 | 48 | 1011.3 |
| 20260507174524 | 71 | 302 | 0.9 | 3.5 | 0.00 | 0.09 | 0.06 | 48 | 1011.4 |
| 20260507173603 | 71 | 312 | 1.7 | 3.5 | 0.00 | 0.09 | 0.06 | 46 | 1011.2 |
| 20260507172706 | 71 | 269 | 1.7 | 2.6 | 0.00 | 0.09 | 0.06 | 44 | 1011.3 |
| 20260507171803 | 72 | 231 | 1.7 | 3.5 | 0.00 | 0.09 | 0.06 | 43 | 1011.1 |
| 20260507170903 | 72 | 230 | 1.7 | 3.5 | 0.00 | 0.09 | 0.06 | 42 | 1011.1 |
| 20260507170003 | 73 | 228 | 0.9 | 3.5 | 0.00 | 0.09 | 0.06 | 41 | 1011.1 |
| 20260507165403 | 72 | 249 | 1.7 | 3.5 | 0.00 | 0.09 | 0.06 | 43 | 1011.4 |
| 20260507164524 | 72 | 256 | 2.6 | 4.3 | 0.00 | 0.09 | 0.06 | 43 | 1011.1 |
| 20260507163603 | 73 | 236 | 1.7 | 3.5 | 0.00 | 0.09 | 0.06 | 42 | 1011.0 |
| 20260507162703 | 73 | 230 | 2.6 | 4.3 | 0.00 | 0.09 | 0.06 | 41 | 1010.9 |
| 20260507161803 | 71 | 281 | 2.6 | 4.3 | 0.00 | 0.09 | 0.06 | 43 | 1011.1 |
| 20260507160904 | 72 | 260 | 3.5 | 7.0 | 0.00 | 0.09 | 0.06 | 43 | 1011.1 |
| 20260507160003 | 71 | 277 | 3.5 | 7.8 | 0.00 | 0.09 | 0.06 | 41 | 1011.2 |
| 20260507155403 | 72 | 291 | 3.5 | 7.8 | 0.00 | 0.09 | 0.06 | 41 | 1011.1 |
| 20260507154510 | 72 | 312 | 2.6 | 5.2 | 0.00 | 0.09 | 0.06 | 38 | 1011.1 |
| 20260507153606 | 72 | 259 | 1.7 | 5.2 | 0.00 | 0.09 | 0.06 | 39 | 1011.0 |
| 20260507152703 | 71 | 285 | 2.6 | 7.0 | 0.00 | 0.09 | 0.06 | 38 | 1011.3 |
| 20260507151803 | 72 | 259 | 2.6 | 7.8 | 0.00 | 0.09 | 0.06 | 40 | 1011.1 |
| 20260507150903 | 72 | 256 | 2.6 | 7.8 | 0.00 | 0.09 | 0.06 | 40 | 1011.4 |
| 20260507150003 | 72 | 245 | 4.3 | 7.8 | 0.00 | 0.09 | 0.06 | 42 | 1011.3 |
| 20260507145424 | 72 | 256 | 4.3 | 8.7 | 0.00 | 0.09 | 0.06 | 43 | 1011.4 |
| 20260507144503 | 71 | 286 | 3.5 | 8.7 | 0.00 | 0.09 | 0.06 | 42 | 1011.4 |
| 20260507143603 | 71 | 270 | 4.3 | 11.3 | 0.00 | 0.09 | 0.06 | 42 | 1011.8 |
| 20260507142703 | 71 | 292 | 4.3 | 9.6 | 0.00 | 0.09 | 0.06 | 43 | 1011.8 |
| 20260507141803 | 71 | 259 | 4.3 | 9.6 | 0.00 | 0.09 | 0.06 | 44 | 1011.9 |
| 20260507140925 | 71 | 217 | 4.3 | 8.7 | 0.00 | 0.09 | 0.06 | 43 | 1012.0 |
| 20260507140003 | 70 | 240 | 4.3 | 8.7 | 0.00 | 0.09 | 0.06 | 45 | 1012.1 |
| 20260507135403 | 71 | 233 | 3.5 | 7.8 | 0.00 | 0.09 | 0.06 | 44 | 1012.1 |
| 20260507134505 | 71 | 224 | 3.5 | 6.1 | 0.00 | 0.09 | 0.06 | 43 | 1012.2 |
| 20260507133603 | 70 | 211 | 5.2 | 10.4 | 0.00 | 0.09 | 0.06 | 44 | 1012.3 |
| 20260507132703 | 71 | 219 | 5.2 | 10.4 | 0.00 | 0.09 | 0.06 | 42 | 1012.3 |
| 20260507131803 | 71 | 209 | 3.5 | 8.7 | 0.00 | 0.09 | 0.06 | 40 | 1012.3 |
| 20260507130903 | 70 | 210 | 4.3 | 8.7 | 0.00 | 0.09 | 0.06 | 44 | 1012.4 |
| 20260507130003 | 71 | 204 | 3.5 | 7.8 | 0.00 | 0.09 | 0.06 | 42 | 1012.4 |
| 20260507125408 | 70 | 201 | 2.6 | 6.1 | 0.00 | 0.09 | 0.06 | 43 | 1012.5 |
| 20260507124524 | 70 | 222 | 3.5 | 7.8 | 0.00 | 0.09 | 0.06 | 44 | 1012.5 |
| 20260507123603 | 71 | 180 | 3.5 | 10.4 | 0.00 | 0.09 | 0.06 | 43 | 1012.4 |
| 20260507122705 | 70 | 174 | 5.2 | 9.6 | 0.00 | 0.09 | 0.06 | 45 | 1012.6 |
| 20260507121803 | 71 | 183 | 5.2 | 7.8 | 0.00 | 0.09 | 0.06 | 46 | 1012.6 |
| 20260507120903 | 69 | 225 | 3.5 | 6.1 | 0.00 | 0.09 | 0.06 | 51 | 1012.7 |
| 20260507120003 | 71 | 129 | 1.7 | 5.2 | 0.00 | 0.09 | 0.06 | 50 | 1012.9 |
| 20260507115403 | 69 | 136 | 3.5 | 7.8 | 0.00 | 0.09 | 0.06 | 51 | 1012.8 |
| 20260507114524 | 69 | 142 | 4.3 | 8.7 | 0.00 | 0.09 | 0.06 | 51 | 1012.9 |
| 20260507113603 | 68 | 246 | 3.5 | 9.6 | 0.00 | 0.09 | 0.06 | 51 | 1012.7 |
| 20260507112703 | 70 | 187 | 2.6 | 6.1 | 0.00 | 0.09 | 0.06 | 52 | 1012.8 |
| 20260507111804 | 67 | 249 | 2.6 | 7.8 | 0.00 | 0.09 | 0.06 | 56 | 1012.9 |
| 20260507110903 | 68 | 277 | 1.7 | 7.0 | 0.00 | 0.09 | 0.06 | 57 | 1013.1 |
| 20260507110003 | 68 | 129 | 1.7 | 4.3 | 0.00 | 0.09 | 0.06 | 56 | 1012.9 |
| 20260507105404 | 66 | 196 | 2.6 | 5.2 | 0.00 | 0.09 | 0.06 | 58 | 1013.2 |
| 20260507104503 | 67 | 114 | 2.6 | 5.2 | 0.00 | 0.09 | 0.06 | 59 | 1013.0 |
| 20260507103606 | 66 | 57 | 2.6 | 5.2 | 0.00 | 0.09 | 0.06 | 59 | 1013.2 |
| 20260507102704 | 66 | 227 | 2.6 | 5.2 | 0.00 | 0.09 | 0.06 | 61 | 1013.4 |
| 20260507101803 | 65 | 238 | 4.3 | 9.6 | 0.00 | 0.09 | 0.06 | 63 | 1013.6 |
| 20260507100903 | 65 | 240 | 4.3 | 10.4 | 0.00 | 0.09 | 0.06 | 67 | 1013.4 |
| 20260507100003 | 64 | 289 | 1.7 | 6.1 | 0.00 | 0.09 | 0.06 | 64 | 1013.3 |
| 20260507095403 | 65 | 254 | 2.6 | 7.0 | 0.00 | 0.09 | 0.06 | 66 | 1013.4 |
| 20260507094503 | 67 | 182 | 3.5 | 7.0 | 0.00 | 0.09 | 0.06 | 63 | 1013.5 |
| 20260507093603 | 67 | 200 | 3.5 | 6.1 | 0.00 | 0.09 | 0.06 | 64 | 1013.6 |
| 20260507092706 | 67 | 143 | 2.6 | 5.2 | 0.00 | 0.09 | 0.06 | 61 | 1013.6 |
| 20260507091803 | 66 | 99 | 2.6 | 5.2 | 0.00 | 0.09 | 0.06 | 65 | 1013.7 |
| 20260507090903 | 65 | 112 | 2.6 | 4.3 | 0.00 | 0.09 | 0.06 | 66 | 1013.6 |
| 20260507090004 | 62 | 145 | 2.6 | 7.0 | 0.00 | 0.09 | 0.06 | 70 | 1013.7 |
| 20260507085406 | 63 | 79 | 2.6 | 6.1 | 0.00 | 0.09 | 0.06 | 71 | 1013.7 |
| 20260507084505 | 64 | 109 | 3.5 | 7.0 | 0.00 | 0.09 | 0.06 | 69 | 1013.7 |
| 20260507083603 | 64 | 131 | 3.5 | 6.1 | 0.00 | 0.09 | 0.06 | 69 | 1013.3 |
| 20260507082703 | 61 | 167 | 1.7 | 5.2 | 0.00 | 0.09 | 0.06 | 72 | 1013.7 |
| 20260507081803 | 63 | 146 | 4.3 | 8.7 | 0.00 | 0.09 | 0.06 | 72 | 1013.7 |
| 20260507080903 | 63 | 173 | 2.6 | 5.2 | 0.00 | 0.09 | 0.06 | 70 | 1013.8 |
| 20260507080003 | 63 | 160 | 3.5 | 5.2 | 0.00 | 0.09 | 0.06 | 71 | 1013.7 |
| 20260507075403 | 62 | 145 | 3.5 | 7.0 | 0.00 | 0.09 | 0.06 | 73 | 1013.7 |
| 20260507074503 | 62 | 134 | 3.5 | 7.0 | 0.00 | 0.09 | 0.06 | 74 | 1013.7 |
| 20260507073603 | 60 | 146 | 4.3 | 7.0 | 0.00 | 0.09 | 0.06 | 77 | 1013.9 |
| 20260507072718 | 58 | 163 | 3.5 | 7.0 | 0.00 | 0.09 | 0.06 | 81 | 1013.9 |
| 20260507071803 | 59 | 160 | 4.3 | 7.8 | 0.00 | 0.09 | 0.06 | 83 | 1013.5 |
| 20260507070903 | 59 | 148 | 3.5 | 6.1 | 0.00 | 0.09 | 0.06 | 84 | 1013.7 |
| 20260507070005 | 59 | 149 | 3.5 | 8.7 | 0.00 | 0.09 | 0.06 | 83 | 1013.9 |
| 20260507065403 | 59 | 143 | 4.3 | 7.8 | 0.00 | 0.09 | 0.06 | 82 | 1013.7 |
| 20260507064504 | 59 | 145 | 3.5 | 7.0 | 0.00 | 0.09 | 0.06 | 82 | 1013.7 |
| 20260507063606 | 59 | 155 | 2.6 | 5.2 | 0.00 | 0.09 | 0.06 | 81 | 1013.5 |
| 20260507062704 | 59 | 150 | 2.6 | 4.3 | 0.00 | 0.10 | 0.06 | 82 | 1013.6 |
| 20260507061804 | 58 | 137 | 2.6 | 5.2 | 0.00 | 0.10 | 0.06 | 87 | 1013.5 |
| 20260507060905 | 57 | 91 | 2.6 | 3.5 | 0.00 | 0.11 | 0.06 | 88 | 1013.5 |
| 20260507060003 | 57 | 89 | 2.6 | 4.3 | 0.00 | 0.11 | 0.06 | 88 | 1013.4 |
| 20260507055403 | 57 | 90 | 2.6 | 4.3 | 0.00 | 0.11 | 0.06 | 88 | 1013.4 |